TimeCST,TemperatureF,Dew PointF,Humidity,Sea Level PressureIn,VisibilityMPH,Wind Direction,Wind SpeedMPH,Gust SpeedMPH,PrecipitationIn,Events,Conditions,WindDirDegrees,DateUTC
12:54 AM,19.9,8.1,60,30.01,10.0,North,17.3,26.5,N/A,,Partly Cloudy,350,2012-01-17 06:54:00
1:54 AM,19.9,10.0,65,30.03,10.0,North,20.7,26.5,N/A,,Overcast,350,2012-01-17 07:54:00
2:54 AM,19.9,10.0,65,30.05,10.0,NNW,24.2,28.8,N/A,,Overcast,340,2012-01-17 08:54:00
3:09 AM,19.4,10.4,68,30.03,10.0,NNW,20.7,-,N/A,,Overcast,340,2012-01-17 09:09:00
3:44 AM,19.4,10.4,68,30.05,10.0,NNW,20.7,31.1,N/A,,Mostly Cloudy,330,2012-01-17 09:44:00
3:54 AM,19.0,10.9,71,30.08,10.0,NNW,23.0,28.8,N/A,,Mostly Cloudy,330,2012-01-17 09:54:00
4:20 AM,17.6,10.4,73,30.08,5.0,NNW,23.0,33.4,0.00,Snow,Light Snow,330,2012-01-17 10:20:00
4:52 AM,17.6,10.4,73,30.09,7.0,NNW,21.9,-,0.00,,Overcast,330,2012-01-17 10:52:00
4:54 AM,18.0,10.0,71,30.13,7.0,NNW,20.7,28.8,0.00,,Overcast,330,2012-01-17 10:54:00
6:54 AM,15.1,8.1,74,30.22,6.0,NW,25.3,31.1,0.00,Snow,Light Snow,320,2012-01-17 12:54:00
7:54 AM,14.0,7.0,74,30.27,2.0,NW,21.9,29.9,0.00,Snow,Light Snow,320,2012-01-17 13:54:00
8:10 AM,12.2,6.8,79,30.25,1.8,NW,23.0,27.6,0.00,Snow,Light Snow,320,2012-01-17 14:10:00
8:30 AM,12.2,6.8,79,30.26,2.5,NW,19.6,-,0.00,Snow,Blowing Snow,320,2012-01-17 14:30:00
8:38 AM,12.2,6.8,79,30.27,4.0,NNW,23.0,29.9,0.00,,Overcast,330,2012-01-17 14:38:00
8:54 AM,14.0,6.1,71,30.33,3.0,NNW,19.6,-,0.00,,Haze,330,2012-01-17 14:54:00
9:03 AM,14.0,6.8,73,30.29,1.8,NNW,18.4,-,0.00,Snow,Light Snow,330,2012-01-17 15:03:00
9:14 AM,14.0,6.8,73,30.30,1.5,NNW,19.6,27.6,0.00,Snow,Light Snow,330,2012-01-17 15:14:00
9:21 AM,14.0,6.8,73,30.30,3.0,NW,21.9,-,0.00,,Overcast,320,2012-01-17 15:21:00
9:54 AM,15.1,6.1,68,30.36,6.0,NW,23.0,31.1,0.00,,Haze,320,2012-01-17 15:54:00
10:16 AM,15.8,6.8,68,30.32,10.0,NNW,20.7,-,N/A,,Scattered Clouds,330,2012-01-17 16:16:00
10:54 AM,18.0,7.0,62,30.38,10.0,NNW,19.6,-,N/A,,Scattered Clouds,330,2012-01-17 16:54:00
11:54 AM,19.9,6.1,55,30.36,10.0,NNW,13.8,-,N/A,,Clear,330,2012-01-17 17:54:00
12:54 PM,21.0,5.0,50,30.36,10.0,NW,19.6,-,N/A,,Clear,310,2012-01-17 18:54:00
1:54 PM,21.0,6.1,53,30.35,10.0,NW,12.7,-,N/A,,Clear,320,2012-01-17 19:54:00
2:54 PM,21.9,6.1,51,30.37,10.0,NNW,13.8,-,N/A,,Clear,330,2012-01-17 20:54:00
3:54 PM,19.9,6.1,55,30.37,10.0,NW,12.7,-,N/A,,Clear,310,2012-01-17 21:54:00
4:54 PM,18.0,5.0,57,30.38,10.0,NW,9.2,-,N/A,,Clear,320,2012-01-17 22:54:00
5:54 PM,12.0,1.0,61,30.39,10.0,NNW,5.8,-,N/A,,Clear,340,2012-01-17 23:54:00
6:54 PM,10.0,1.0,67,30.39,10.0,NNE,3.5,-,N/A,,Clear,30,2012-01-18 00:54:00
7:54 PM,5.0,-2.0,73,30.40,10.0,Calm,Calm,-,N/A,,Clear,0,2012-01-18 01:54:00
8:54 PM,3.9,-4.0,70,30.38,10.0,Calm,Calm,-,N/A,,Clear,0,2012-01-18 02:54:00
9:54 PM,1.9,-5.1,72,30.37,10.0,Calm,Calm,-,N/A,,Clear,0,2012-01-18 03:54:00
10:54 PM,1.0,-5.1,75,30.36,10.0,South,5.8,-,N/A,,Clear,190,2012-01-18 04:54:00
11:54 PM,1.0,-5.1,75,30.34,10.0,SSW,6.9,-,N/A,,Clear,200,2012-01-18 05:54:00